Location: ?????????
(53.2086°N, 54.0693°E)
Time: 02:28:04
(UTC+00:00)

Lacrosse 5 rocket - Pass Details

Date: 08 December 2019
Orbit: 465 x 632 km, 57.0° (Epoch: 26 January)

Event Time Altitude Azimuth Distance (km) Brightness Sun altitude
Rises 15:37:14 0° 252° (WSW) 2,767 5.9 -30.1°
Reaches altitude 10° 15:39:33 10° 255° (WSW) 1,842 4.8 -30.5°
Enters shadow 15:41:30 26° 261° (W) 1,095 3.4 -30.8°
